Regional Weather Roundup
Issued by NWS

Home | Current Version | Previous Version | Graphics & Text | Print | Product List | Glossary On
Versions: 1 2 3 4 5 6 7 8 9 10 11 12 13 14 15 16 17 18 19 20 21 22 23 24 25 26 27 28 29 30 31 32 33 34 35 36 37 38 39 40 41 42 43 44 45 46 47 48 49 50
000
ASUS43 KOAX 091202
RWRNE

WEATHER ROUNDUP FOR NEBRASKA
NATIONAL WEATHER SERVICE OMAHA NE
600 AM CST TUE FEB 09 2016

NOTES: SATELLITE DATA IS BEING USED TO AUGMENT CLOUD COVER ABOVE
       12000 FEET.
       "FAIR" INDICATES FEW OR NO CLOUDS BELOW 12,000 FEET WITH NO
       SIGNIFICANT WEATHER AND/OR OBSTRUCTIONS TO VISIBILITY.

  * THESE STATIONS DO NOT REPORT WEATHER SUCH AS RAIN...SNOW OR FOG.

NEZ001>004-019>022-054>056-091300-
NEBRASKA PANHANDLE

CITY           SKY/WX    TMP DP  RH WIND       PRES   REMARKS
SCOTTSBLUFF    CLEAR     30  23  75 NW10      30.26R WCI  21
6HR MIN TEMP:  30; 6HR MAX TEMP:  34;

ALLIANCE       CLEAR     24  20  84 NW5       30.21R WCI  18
6HR MIN TEMP:  24; 6HR MAX TEMP:  36;

CHADRON        CLOUDY    29  24  82 CALM      30.24R
6HR MIN TEMP:  28; 6HR MAX TEMP:  38;

SIDNEY         CLEAR     32  24  72 NW17      30.22R WCI  21
6HR MIN TEMP:  31; 6HR MAX TEMP:  33;

$$

NEZ057>060-069>072-079>082-091300-
SOUTHWEST NEBRASKA

CITY           SKY/WX    TMP DP  RH WIND       PRES   REMARKS
NORTH PLATTE   MOCLDY    23  16  74 NW8       30.21R WCI  14
6HR MIN TEMP:  20; 6HR MAX TEMP:  30;

IMPERIAL       CLOUDY    31  25  78 N12       30.22R WCI  22
6HR MIN TEMP:  25; 6HR MAX TEMP:  32;

MCCOOK         CLOUDY    29  18  63 NW12      30.22R WCI  19
6HR MIN TEMP:  27; 6HR MAX TEMP:  31;

$$

NEZ005>010-023>029-035>040-094-091300-
NORTH CENTRAL NEBRASKA

CITY           SKY/WX    TMP DP  RH WIND       PRES   REMARKS
VALENTINE      CLOUDY    26  17  68 NW7       30.23R WCI  18
6HR MIN TEMP:  26; 6HR MAX TEMP:  31;

BROKEN BOW     CLOUDY    27  18  69 N18       30.20R WCI  14
6HR MIN TEMP:  27; 6HR MAX TEMP:  32;

ORD            CLOUDY    23  16  74 N15       30.21R WCI  10
6HR MIN TEMP:  22; 6HR MAX TEMP:  27;

$$

NEZ041-046>049-061>064-073>077-083>087-091300-
SOUTH CENTRAL NEBRASKA

CITY           SKY/WX    TMP DP  RH WIND       PRES   REMARKS
GRAND ISLAND   MOCLDY    19  12  74 NW9       30.23R WCI   8
6HR MIN TEMP:  18; 6HR MAX TEMP:  21;

HASTINGS       MOCLDY    21  14  74 N13       30.20R WCI   9
6HR MIN TEMP:  20; 6HR MAX TEMP:  24;

$$

NEZ011>018-030>034-042>045-091300-
NORTHEAST NEBRASKA

CITY           SKY/WX    TMP DP  RH WIND       PRES   REMARKS
NORFOLK        CLEAR     15   6  67 N17       30.19R WCI  -1
6HR MIN TEMP:  15; 6HR MAX TEMP:  26;

COLUMBUS *     PTCLDY    18   1  49 NW21      30.20R WCI   1
TEKAMAH        CLEAR     14   5  67 N16       30.19R WCI  -2
6HR MIN TEMP:  14; 6HR MAX TEMP:  24;

$$

NEZ050>053-065>068-078-088>093-091300-
SOUTHEAST NEBRASKA

CITY           SKY/WX    TMP DP  RH WIND       PRES   REMARKS
LINCOLN        PTCLDY    20   9  62 N21       30.19R WCI   4
6HR MIN TEMP:  20; 6HR MAX TEMP:  30;

OMAHA EPPLEY   PTCLDY    14   6  70 N17       30.18R WCI  -3
6HR MIN TEMP:  14; 6HR MAX TEMP:  23;

FALLS CITY     CLEAR     20  10  65 N17G23    30.14R WCI   5
6HR MIN TEMP:  20; 6HR MAX TEMP:  30;

$$

NEZ044-045-051>053-067-091300-
OMAHA AREA

CITY           SKY/WX    TMP DP  RH WIND       PRES   REMARKS
OMAHA EPPLEY   PTCLDY    14   6  70 N17       30.18R WCI  -3
6HR MIN TEMP:  14; 6HR MAX TEMP:  23;

OFFUTT AFB     CLEAR     15   7  69 N16G28    30.16R WCI   0
$$



USA.gov is the U.S. government's official web portal to all federal, state and local government web resources and services.